Flag for Australia Weather past 2 weeks in Mudgee, New South Wales, Australia

Now
62 °F

Refreshingly cool.


Feels Like: 62 °F
Forecast: 43 / 77 °F
Wind: 1 mph from Southeast

Location: Mudgee Aws

Current Time: Jan 30, 2015 at 10:41:31 PM

Latest Report: Jan 30, 2015 at 10:00 PM


Visibility: N/A

Pressure: 29.72 "Hg

Humidity: 48%

Dew point: 42 °F

Location of MudgeeLocation

Historic Weather in Mudgee — Graph

°F

Mudgee temperature yesterday

Maximum temperature yesterday: 76 °F (at 3:00 PM)
Minimum temperature yesterday: 48 °F (at 7:00 AM)
Average temperature yesterday: 63 °F

Past Weeks' High & Low Weather Summary

 TemperatureHumidityPressure
High90 °F (Jan 25, 6:00 PM)99% (Jan 25, 6:00 AM)29.90 "Hg (Jan 25, 6:00 AM)
Low46 °F (Jan 30, 7:00 AM)20% (Jan 18, 4:00 PM)29.59 "Hg (Jan 24, 6:00 PM)
Average70 °F64%29.78 "Hg
* Reported Jan 15 9:00 PM — Jan 30 9:00 PM, Mudgee, Weather by CustomWeather, © 2014

Note: Actual official high and low records may vary slightly from our data, if they occured in-between our weather recording intervals... More about our weather records

Advertising

Mudgee weather history for previous 24 hours

 ConditionsComfort  
Time TempWeatherWind HumidityBarometerVisibility
9:00 PM
Jan 30
67 °FMild.3 mph39%29.70 "HgN/A
7:00 PM76 °FMild.13 mph26%29.67 "HgN/A
6:00 PM78 °FPassing clouds.15 mph27%29.65 "HgN/A
4:00 PM77 °FPleasantly warm.12 mph29%29.67 "HgN/A
3:00 PM74 °FScattered clouds.13 mph32%29.69 "HgN/A
1:00 PM73 °FMild.13 mph32%29.74 "HgN/A
12:00 PM72 °FScattered clouds.10 mph34%29.75 "HgN/A
10:00 AM64 °FMild.3 mph64%29.79 "HgN/A
9:00 AM60 °FCool.2 mph74%29.80 "HgN/A
7:00 AM46 °FCool.1 mph97%29.79 "HgN/A
6:00 AM47 °FCool.No wind92%29.78 "HgN/A
4:00 AM49 °FCool.6 mph86%29.77 "HgN/A
3:00 AM51 °FCool.1 mph80%29.78 "HgN/A
1:00 AM53 °FCool.3 mph73%29.80 "HgN/A
12:00 AM52 °FCool.3 mph76%29.81 "HgN/A
10:00 PM
Jan 29
62 °FRefreshingly cool.5 mph49%29.81 "HgN/A
Weather by CustomWeather, © 2014

See weather overviewHow to use our weather pages